Location: Unspecified
(0.0000°N, 0.0000°E)
Time: 10:17:25
(UTC+00:00)

A-11 Canister half - Pass Details

Date: 05 August 2021
Orbit: 1515 x 1685 km, 47.2° (Epoch: 27 September)

Event Time Altitude Azimuth Distance (km) Brightness Sun altitude
Rises 00:08:29 0° 328° (NNW) 4,926 11.8 -73.0°
Enters shadow 00:08:33 - 328° (NNW) 4,905 11.8 -73.0°
Reaches altitude 10° 00:11:44 10° 332° (NNW) 3,936 - -73.0°
Maximum altitude 00:21:41 61° 51° (NE) 1,848 - -72.6°
Drops below altitude 10° 00:31:24 10° 128° (SE) 3,856 - -71.9°
Sets 00:34:32 0° 132° (SE) 4,822 - -71.7°
